Date String (YYYY-MM-DD hh:mm:ss) UTC,Instrument flags,Ambient pressure (hPa),Sample flow (lpm),Bypass flow (lpm),Sample temperature (°C),Ambient temperature (°C),ASC tube jacket temperature (°C),LED temperature (°C),Box temperature (°C),Sample RH (%),Span deviation,Mass concentration (μg/m³),Mass concentration (μg/m³),Mass concentration (μg/m³)
DateTimeUTC,F1_M11,P_M11,Q1_M11,Q2_M11,T1_M11,T2_M11,T3_M11,T4_M11,T5_M11,U1_M11,ZSPAN_M11,X0_M11,X2_M11,X1_M11
2023-01-05 03:00:00,,0825.4,5.08,0.00,22.4,21.6,00.0,31.1,24.2,07.8,0000.0,0012.45,0007.16,0006.73
2023-01-05 03:01:00,,0825.4,4.99,0.00,22.4,21.4,00.0,31.2,24.2,07.9,0000.0,0012.34,0007.11,0006.69
2023-01-05 03:02:00,,0825.4,4.97,0.00,22.4,21.3,00.0,31.2,24.2,07.9,0000.0,0012.29,0007.09,0006.64
2023-01-05 03:03:00,,0825.4,4.97,0.00,22.4,21.2,00.0,31.2,24.1,07.9,-000.2,0011.86,0007.05,0006.61
2023-01-05 03:04:00,,0825.3,5.03,0.00,22.4,21.1,00.0,31.2,24.1,07.9,0000.0,0012.03,0007.14,0006.67
2023-01-05 03:05:00,,0825.4,4.97,0.00,22.4,21.0,00.0,31.2,24.1,07.9,0000.0,0011.74,0007.30,0006.83
2023-01-05 03:06:00,,0825.4,5.02,0.00,22.4,21.0,00.0,31.2,24.1,07.9,0000.0,0011.62,0007.24,0006.77
2023-01-05 03:07:00,,0825.4,5.01,0.00,22.3,20.9,00.0,31.2,24.0,07.9,0000.0,0011.69,0007.14,0006.68
2023-01-05 03:08:00,,0825.4,5.00,0.00,22.3,20.9,00.0,31.2,24.0,08.0,0000.0,0012.07,0007.07,0006.63
2023-01-05 03:09:00,,0825.4,5.00,0.00,22.3,20.9,00.0,31.1,24.0,08.0,0000.6,0011.99,0007.06,0006.62
2023-01-05 03:10:00,,0825.4,5.00,0.00,22.3,20.8,00.0,31.1,24.0,08.0,0001.0,0011.93,0007.03,0006.60
2023-01-05 03:11:00,,0825.4,4.99,0.00,22.3,20.8,00.0,31.1,24.0,08.1,0000.0,0011.72,0006.99,0006.58
2023-01-05 03:12:00,,0825.3,5.00,0.00,22.3,20.8,00.0,31.1,24.0,08.2,0000.0,0011.55,0007.00,0006.57
2023-01-05 03:13:00,,0825.4,4.99,0.00,22.2,20.7,00.0,31.1,23.9,08.2,0000.0,0011.30,0007.00,0006.58
2023-01-05 03:14:00,,0825.4,5.01,0.00,22.2,21.0,00.0,31.1,24.0,08.2,0000.0,0011.30,0006.98,0006.56
2023-01-05 03:15:00,,0825.4,5.02,0.00,22.3,21.8,00.0,31.1,24.2,08.2,0000.0,0011.50,0007.03,0006.59
2023-01-05 03:16:00,,0825.4,5.00,0.00,22.4,22.8,00.0,31.1,24.4,08.1,0000.0,0011.57,0007.12,0006.66
2023-01-05 03:17:00,,0825.4,4.99,0.00,22.5,22.9,00.0,31.1,24.5,08.1,0000.0,0011.64,0007.23,0006.74
2023-01-05 03:18:00,,0825.4,4.99,0.00,22.6,22.4,00.0,31.2,24.5,08.1,0000.0,0011.65,0007.32,0006.83
2023-01-05 03:19:00,,0825.4,5.00,0.00,22.5,22.0,00.0,31.2,24.3,08.1,0000.0,0011.15,0007.41,0006.89
2023-01-05 03:20:00,,0825.4,5.00,0.00,22.5,21.7,00.0,31.2,24.3,08.1,0000.0,0011.76,0007.49,0006.95
2023-01-05 03:21:00,,0825.4,5.01,0.00,22.5,21.5,00.0,31.2,24.3,08.2,0000.0,0012.31,0007.59,0007.02
2023-01-05 03:22:00,,0825.4,5.00,0.00,22.5,21.3,00.0,31.2,24.2,08.3,0000.0,0013.27,0007.75,0007.14
2023-01-05 03:23:00,,0825.5,4.99,0.00,22.5,21.2,00.0,31.2,24.2,08.3,0000.0,0013.59,0007.90,0007.24
2023-01-05 03:24:00,,0825.5,5.00,0.00,22.4,21.0,00.0,31.2,24.1,08.3,0000.0,0014.11,0008.01,0007.33
2023-01-05 03:25:00,,0825.4,5.01,0.00,22.4,21.0,00.0,31.2,24.1,08.6,0000.0,0014.52,0008.22,0007.50
2023-01-05 03:26:00,,0825.5,5.00,0.00,22.4,20.9,00.0,31.2,24.1,08.8,0000.0,0014.60,0008.44,0007.71
2023-01-05 03:27:00,,0825.5,4.99,0.00,22.3,20.8,00.0,31.2,24.0,09.0,0000.0,0015.23,0008.69,0007.96
2023-01-05 03:28:00,,0825.5,5.01,0.00,22.4,21.7,00.0,31.2,24.2,09.0,0000.5,0015.43,0008.91,0008.20
2023-01-05 03:29:00,,0825.5,5.00,0.00,22.5,22.6,00.0,31.2,24.5,09.0,0002.2,0015.76,0009.12,0008.40
2023-01-05 03:30:00,,0825.5,5.00,0.00,22.6,23.0,00.0,31.2,24.6,08.9,0001.8,0016.04,0009.37,0008.63
2023-01-05 03:31:00,,0825.5,4.99,0.00,22.7,22.5,00.0,31.3,24.6,09.0,0001.3,0015.81,0009.61,0008.88
2023-01-05 03:32:00,,0825.5,5.00,0.00,22.6,22.0,00.0,31.3,24.4,09.0,0001.0,0015.84,0009.89,0009.14
2023-01-05 03:33:00,,0825.6,5.00,0.00,22.6,21.7,00.0,31.3,24.3,09.0,0000.9,0015.48,0010.05,0009.35
2023-01-05 03:34:00,,0825.6,5.00,0.00,22.6,21.5,00.0,31.3,24.3,09.0,0001.2,0015.54,0010.25,0009.58
2023-01-05 03:35:00,,0825.6,5.00,0.00,22.6,21.3,00.0,31.3,24.3,09.0,0001.8,0016.08,0010.49,0009.82
2023-01-05 03:36:00,,0825.6,5.00,0.00,22.5,21.2,00.0,31.3,24.3,08.9,0001.9,0015.90,0010.58,0009.96
2023-01-05 03:37:00,,0825.6,5.02,0.00,22.5,21.1,00.0,31.3,24.2,09.1,0001.5,0016.03,0010.71,0010.12
2023-01-05 03:38:00,,0825.6,5.01,0.00,22.5,21.0,00.0,31.3,24.2,09.2,0001.6,0015.98,0010.87,0010.26
2023-01-05 03:39:00,,0825.7,4.99,0.00,22.5,20.9,00.0,31.3,24.1,09.3,0001.4,0016.21,0011.08,0010.42
2023-01-05 03:40:00,,0825.7,5.00,0.00,22.4,20.9,00.0,31.3,24.1,09.3,0001.5,0016.49,0011.25,0010.59
2023-01-05 03:41:00,,0825.7,4.99,0.00,22.4,20.8,00.0,31.3,24.1,09.4,0001.6,0017.13,0011.42,0010.78
2023-01-05 03:42:00,,0826.0,4.99,0.00,22.4,20.8,00.0,31.3,24.0,09.4,0001.4,0017.29,0011.57,0010.94
2023-01-05 03:43:00,,0825.8,5.02,0.00,22.4,21.6,00.0,31.2,24.2,09.3,0001.3,0017.34,0011.68,0011.06
2023-01-05 03:44:00,,0825.9,4.99,0.00,22.5,22.6,00.0,31.2,24.5,09.3,0001.1,0017.06,0011.82,0011.17
2023-01-05 03:45:00,,0825.8,5.00,0.00,22.7,23.0,00.0,31.3,24.6,09.3,0001.1,0017.16,0011.93,0011.28
2023-01-05 03:46:00,,0825.9,4.99,0.00,22.7,22.6,00.0,31.3,24.6,09.3,0000.6,0016.75,0012.02,0011.37
2023-01-05 03:47:00,,0825.8,5.00,0.00,22.7,22.2,00.0,31.4,24.5,09.3,0000.5,0016.80,0012.21,0011.53
2023-01-05 03:48:00,,0826.1,5.00,0.00,22.7,21.9,00.0,31.4,24.5,09.3,0000.5,0016.82,0012.30,0011.62
2023-01-05 03:49:00,,0825.9,4.99,0.00,22.7,21.6,00.0,31.4,24.4,09.3,-000.0,0017.29,0012.28,0011.65
2023-01-05 03:50:00,,0825.9,5.00,0.00,22.6,21.4,00.0,31.4,24.3,09.3,-000.1,0017.42,0012.25,0011.65
2023-01-05 03:51:00,,0825.9,5.01,0.00,22.6,21.3,00.0,31.4,24.3,09.3,-000.2,0017.29,0012.25,0011.63
2023-01-05 03:52:00,,0825.9,5.00,0.00,22.6,21.2,00.0,31.4,24.3,09.3,-000.5,0016.69,0012.24,0011.62
2023-01-05 03:53:00,,0826.1,4.98,0.00,22.6,21.1,00.0,31.4,24.3,09.3,-000.3,0017.51,0012.22,0011.61
2023-01-05 03:54:00,,0826.1,5.00,0.00,22.5,21.0,00.0,31.4,24.2,09.3,0000.0,0017.97,0012.15,0011.54
2023-01-05 03:55:00,,0826.0,4.99,0.00,22.5,20.9,00.0,31.4,24.2,09.3,0000.2,0017.84,0012.06,0011.47
2023-01-05 03:56:00,,0826.1,4.99,0.00,22.5,20.8,00.0,31.3,24.1,09.2,0000.1,0017.90,0011.91,0011.32
2023-01-05 03:57:00,,0825.8,5.01,0.00,22.4,20.8,00.0,31.3,24.1,09.0,0000.2,0017.80,0011.71,0011.13
2023-01-05 03:58:00,,0825.7,5.00,0.00,22.4,20.7,00.0,31.3,24.1,09.0,-000.0,0017.69,0011.51,0010.92
2023-01-05 03:59:00,,0825.9,4.99,0.00,22.4,20.7,00.0,31.3,24.1,09.0,0000.1,0017.58,0011.31,0010.70
